Tracking 20037 objects as of 20-Nov-2019
Live streaming from Space Station
objects crossing your sky now

COSMOS 2197

Track COSMOS 2197 now!
10-day predictions
COSMOS 2197 is classified as:


NORAD ID: 22034
Int'l Code: 1992-042A
Perigee: 1,403.7 km
Apogee: 1,422.2 km
Inclination: 82.6 °
Period: 113.9 minutes
Semi major axis: 7783 km
RCS: 1.1368 m2 (large)
Launch date: July 13, 1992
Source: Commonwealth of Independent States (former USSR) (CIS)
Launch site: PLESETSK MISSILE AND SPACE COMPLEX (PKMTR)
aabbcc
Your satellite tracking list
Your tracking list is empty




NASA's NSSDC Master Catalog

Two Line Element Set (TLE):
1 22034U 92042A   19323.54967986 +.00000038 +00000-0 +15190-3 0  9990
2 22034 082.5918 323.4418 0011855 342.7174 136.8240 12.64163715261828
Source of the keplerian elements: AFSPC